N6RSX Weather Reports


Display with metric or nautical units.
time (UTC)temp
F
wind
direction
speed
MPH
gust
MPH
rain 1hr
in
rain 24hr
in
rain mn
in
humidity
%
barometer
mb
20260507040801 65 257 2.0 7.0 0.00 0.00 0.00 67 1017.6
20260507035244 65 221 3.0 7.0 0.00 0.00 0.00 66 1017.3
20260507034737 65 232 2.0 7.0 0.00 0.00 0.00 66 1017.3
20260507034231 65 221 2.0 8.0 0.00 0.00 0.00 66 1017.2
20260507033725 65 219 4.0 8.0 0.00 0.00 0.00 66 1017.1
20260507033219 66 198 3.0 7.0 0.00 0.00 0.00 65 1017.0
20260507032714 66 217 3.0 7.0 0.00 0.00 0.00 65 1017.1
20260507032206 66 221 2.0 9.0 0.00 0.00 0.00 64 1017.0
20260507031702 66 244 3.0 9.0 0.00 0.00 0.00 63 1016.9
20260507031155 67 200 3.0 8.0 0.00 0.00 0.00 63 1016.8
20260507030650 67 215 3.0 8.0 0.00 0.00 0.00 62 1016.8
20260507030143 67 228 3.0 8.0 0.00 0.00 0.00 62 1016.8
20260507025637 67 232 3.0 8.0 0.00 0.00 0.00 62 1016.7
20260507025131 67 242 4.0 8.0 0.00 0.00 0.00 62 1016.7
20260507024625 67 229 3.0 9.0 0.00 0.00 0.00 62 1016.6
20260507024119 68 200 4.0 9.0 0.00 0.00 0.00 61 1016.7
20260507023613 68 231 4.0 10.0 0.00 0.00 0.00 61 1016.5
20260507023107 68 231 4.0 10.0 0.00 0.00 0.00 61 1016.4
20260507022056 69 217 3.0 7.0 0.00 0.00 0.00 60 1016.2
20260507021549 69 215 3.0 7.0 0.00 0.00 0.00 60 1016.2
20260507020031 70 209 4.0 8.0 0.00 0.00 0.00 60 1015.9
20260507015525 70 173 5.0 9.0 0.00 0.00 0.00 60 1015.9
20260507015019 70 167 5.0 9.0 0.00 0.00 0.00 59 1015.9
20260507014007 70 165 5.0 9.0 0.00 0.00 0.00 58 1015.9
20260507013501 70 167 6.0 11.0 0.00 0.00 0.00 58 1015.9
20260507012955 70 170 6.0 11.0 0.00 0.00 0.00 58 1015.8
20260507012450 71 205 6.0 11.0 0.00 0.00 0.00 57 1015.6
20260507011439 71 202 6.0 12.0 0.00 0.00 0.00 57 1015.7
20260507010932 71 224 6.0 12.0 0.00 0.00 0.00 57 1015.7
20260507005929 71 185 7.0 14.0 0.00 0.00 0.00 56 1015.6
20260507005429 72 209 7.0 14.0 0.00 0.00 0.00 56 1015.5
20260507004930 72 192 6.0 10.0 0.00 0.00 0.00 55 1015.5
20260507004427 72 242 6.0 12.0 0.00 0.00 0.00 56 1015.6
20260507003929 72 193 6.0 12.0 0.00 0.00 0.00 55 1015.6
20260507002926 72 180 5.0 10.0 0.00 0.00 0.00 55 1015.5
20260507002426 72 202 6.0 12.0 0.00 0.00 0.00 54 1015.5
20260507001927 73 206 6.0 12.0 0.00 0.00 0.00 54 1015.5
20260507000427 73 171 6.0 13.0 0.00 0.00 0.00 53 1015.4
20260506235927 73 181 5.0 11.0 0.00 0.00 0.00 53 1015.5
20260506234927 73 190 4.0 11.0 0.00 0.00 0.00 53 1015.5
20260506234427 73 231 5.0 11.0 0.00 0.00 0.00 54 1015.4
20260506232909 73 205 5.0 10.0 0.00 0.00 0.00 53 1015.5
20260506232403 73 175 5.0 11.0 0.00 0.00 0.00 53 1015.5
20260506231857 73 168 6.0 11.0 0.00 0.00 0.00 54 1015.6
20260506231351 73 236 6.0 10.0 0.00 0.00 0.00 54 1015.7
20260506230346 74 165 6.0 13.0 0.00 0.00 0.00 52 1015.8
20260506225846 74 205 5.0 12.0 0.00 0.00 0.00 51 1015.8
20260506225345 74 196 5.0 10.0 0.00 0.00 0.00 52 1015.9
20260506223347 74 211 6.0 12.0 0.00 0.00 0.00 51 1016.1
20260506222845 74 239 7.0 12.0 0.00 0.00 0.00 52 1016.1
20260506222345 74 214 6.0 12.0 0.00 0.00 0.00 51 1016.1
20260506221845 74 198 6.0 11.0 0.00 0.00 0.00 52 1016.2
20260506221341 74 230 5.0 11.0 0.00 0.00 0.00 52 1016.1
20260506220841 75 170 4.0 10.0 0.00 0.00 0.00 51 1016.3
20260506220341 74 150 4.0 11.0 0.00 0.00 0.00 51 1016.2
20260506215841 74 244 5.0 13.0 0.00 0.00 0.00 52 1016.3
20260506214841 73 222 7.0 14.0 0.00 0.00 0.00 52 1016.5
20260506213841 74 229 6.0 13.0 0.00 0.00 0.00 51 1016.6
20260506213341 74 216 4.0 10.0 0.00 0.00 0.00 52 1016.5
20260506212841 74 154 4.0 10.0 0.00 0.00 0.00 51 1016.4
20260506212340 74 227 4.0 11.0 0.00 0.00 0.00 53 1016.5
20260506211840 73 290 5.0 11.0 0.00 0.00 0.00 54 1016.6
20260506211342 73 227 4.0 10.0 0.00 0.00 0.00 53 1016.7
20260506205841 73 229 4.0 9.0 0.00 0.00 0.00 55 1016.7
20260506205341 73 208 6.0 12.0 0.00 0.00 0.00 54 1016.9
20260506204839 73 184 6.0 12.0 0.00 0.00 0.00 55 1016.8
20260506203324 73 218 5.0 10.0 0.00 0.00 0.00 53 1017.0
20260506202818 73 199 5.0 12.0 0.00 0.00 0.00 54 1017.1
20260506202312 72 224 4.0 12.0 0.00 0.00 0.00 54 1017.2
20260506201812 73 167 4.0 12.0 0.00 0.00 0.00 53 1017.1
20260506201313 73 290 3.0 8.0 0.00 0.00 0.00 51 1017.3
20260506200813 72 217 3.0 7.0 0.00 0.00 0.00 51 1017.4
20260506200311 73 196 3.0 7.0 0.00 0.00 0.00 50 1017.4
20260506195811 72 340 3.0 7.0 0.00 0.00 0.00 51 1017.3
20260506195310 72 15 3.0 7.0 0.00 0.00 0.00 51 1017.6
20260506194808 72 190 4.0 9.0 0.00 0.00 0.00 53 1017.7
20260506194308 71 221 3.0 9.0 0.00 0.00 0.00 51 1017.7
20260506193806 72 198 2.0 8.0 0.00 0.00 0.00 52 1017.7
20260506193307 71 315 2.0 8.0 0.00 0.00 0.00 52 1017.7
20260506192307 71 221 4.0 9.0 0.00 0.00 0.00 53 1017.9
20260506191806 71 246 4.0 9.0 0.00 0.00 0.00 53 1017.9
20260506191304 71 231 3.0 9.0 0.00 0.00 0.00 52 1018.0
20260506190305 71 170 1.0 4.0 0.00 0.00 0.00 52 1018.1
20260506185759 70 351 1.0 4.0 0.00 0.00 0.00 55 1018.1
20260506185254 69 51 2.0 7.0 0.00 0.00 0.00 56 1018.2
20260506184746 68 166 4.0 10.0 0.00 0.00 0.00 56 1018.3
20260506183734 68 148 3.0 8.0 0.00 0.00 0.00 56 1018.3
20260506183228 69 200 3.0 7.0 0.00 0.00 0.00 56 1018.4
20260506182721 68 309 3.0 8.0 0.00 0.00 0.00 56 1018.4
20260506182216 68 254 3.0 8.0 0.00 0.00 0.00 57 1018.4
20260506181712 68 245 2.0 8.0 0.00 0.00 0.00 57 1018.5
20260506181204 68 254 2.0 7.0 0.00 0.00 0.00 57 1018.4
20260506180659 67 240 2.0 4.0 0.00 0.00 0.00 58 1018.5
20260506180152 67 189 2.0 5.0 0.00 0.00 0.00 58 1018.5
20260506175646 67 259 1.0 5.0 0.00 0.00 0.00 60 1018.6
20260506175140 66 161 2.0 8.0 0.00 0.00 0.00 61 1018.5
20260506174634 66 145 2.0 8.0 0.00 0.00 0.00 58 1018.6
20260506174128 66 240 2.0 6.0 0.00 0.00 0.00 60 1018.6
20260506173623 66 132 2.0 5.0 0.00 0.00 0.00 60 1018.5
20260506173116 65 159 2.0 7.0 0.00 0.00 0.00 61 1018.5
20260506172611 65 170 3.0 9.0 0.00 0.00 0.00 60 1018.5
20260506172104 65 88 3.0 9.0 0.00 0.00 0.00 60 1018.6
20260506171558 65 184 2.0 7.0 0.00 0.00 0.00 60 1018.6
20260506171054 65 171 2.0 7.0 0.00 0.00 0.00 60 1018.6
20260506170546 65 151 1.0 5.0 0.00 0.00 0.00 61 1018.6
20260506170040 65 333 2.0 6.0 0.00 0.00 0.00 61 1018.5
20260506165535 64 103 1.0 6.0 0.00 0.00 0.00 61 1018.7
20260506165028 64 154 1.0 4.0 0.00 0.00 0.00 62 1018.6
20260506164523 64 238 1.0 5.0 0.00 0.00 0.00 63 1018.7
20260506164016 64 239 1.0 5.0 0.00 0.00 0.00 63 1018.7
20260506163510 64 263 2.0 5.0 0.00 0.00 0.00 63 1018.7
20260506163005 64 157 2.0 5.0 0.00 0.00 0.00 63 1018.6
20260506162458 64 44 1.0 4.0 0.00 0.00 0.00 62 1018.7
20260506161951 64 22 1.0 4.0 0.00 0.00 0.00 64 1018.7
20260506161447 63 90 2.0 5.0 0.00 0.00 0.00 65 1018.7
20260506160939 63 103 2.0 5.0 0.00 0.00 0.00 66 1018.6
20260506155929 63 35 1.0 4.0 0.00 0.00 0.00 66 1018.6
20260506155422 63 119 0.0 4.0 0.00 0.00 0.00 67 1018.5
20260506154410 63 73 1.0 4.0 0.00 0.00 0.00 69 1018.7
20260506153904 63 85 1.0 4.0 0.00 0.00 0.00 69 1018.7
20260506153359 62 62 1.0 3.0 0.00 0.00 0.00 70 1018.7
20260506152851 62 84 1.0 3.0 0.00 0.00 0.00 69 1018.7
20260506152346 62 0 0.0 3.0 0.00 0.00 0.00 71 1018.7
20260506151840 62 59 0.0 3.0 0.00 0.00 0.00 72 1018.7
20260506151334 61 86 0.0 0.0 0.00 0.00 0.00 74 1018.7
20260506150322 60 157 0.0 0.0 0.00 0.00 0.00 76 1018.5
20260506145817 60 169 0.0 0.0 0.00 0.00 0.00 77 1018.6
20260506145310 60 350 0.0 0.0 0.00 0.00 0.00 78 1018.6
20260506144803 60 350 0.0 1.0 0.00 0.00 0.00 79 1018.6
20260506144258 59 41 0.0 2.0 0.00 0.00 0.00 81 1018.5
20260506143752 58 38 0.0 2.0 0.00 0.00 0.00 82 1018.4
20260506143246 57 9 0.0 2.0 0.00 0.00 0.00 84 1018.4
20260506142744 56 22 0.0 2.0 0.00 0.00 0.00 85 1018.6
20260506142244 56 336 0.0 2.0 0.00 0.00 0.00 85 1018.6
20260506141744 55 350 0.0 2.0 0.00 0.00 0.00 85 1018.5
20260506141240 55 351 1.0 3.0 0.00 0.00 0.00 85 1018.4
20260506140738 55 331 1.0 3.0 0.00 0.00 0.00 86 1018.6
20260506140238 54 11 1.0 3.0 0.00 0.00 0.00 87 1018.6
20260506135738 54 14 1.0 4.0 0.00 0.00 0.00 88 1018.5
20260506134738 53 49 0.0 3.0 0.00 0.00 0.00 90 1018.4
20260506134239 52 340 1.0 3.0 0.00 0.00 0.00 91 1018.4
20260506133739 52 32 1.0 3.0 0.00 0.00 0.00 91 1018.4
20260506133236 52 34 0.0 2.0 0.00 0.00 0.00 91 1018.3
20260506132736 51 344 0.0 2.0 0.00 0.00 0.00 92 1018.3
20260506132231 51 30 1.0 2.0 0.00 0.00 0.00 91 1018.2
20260506131229 51 344 0.0 2.0 0.00 0.00 0.00 92 1018.0
20260506130731 51 350 0.0 2.0 0.00 0.00 0.00 91 1018.0
20260506130228 51 351 0.0 2.0 0.00 0.00 0.00 92 1018.0
20260506125727 51 311 0.0 2.0 0.00 0.00 0.00 92 1017.8
20260506125221 51 333 0.0 2.0 0.00 0.00 0.00 92 1017.8
20260506124717 51 350 1.0 3.0 0.00 0.00 0.00 92 1017.8
20260506123714 51 351 1.0 3.0 0.00 0.01 0.00 92 1017.5
20260506123211 51 347 1.0 3.0 0.00 0.01 0.00 91 1017.4
20260506122212 51 5 1.0 3.0 0.00 0.01 0.00 91 1017.4
20260506121711 51 0 0.0 2.0 0.00 0.01 0.00 92 1017.4
20260506121212 51 349 0.0 0.0 0.00 0.01 0.00 92 1017.3
20260506120711 51 344 0.0 0.0 0.00 0.01 0.00 91 1017.3
20260506120211 51 344 0.0 0.0 0.00 0.01 0.00 91 1017.3
20260506115712 51 344 0.0 2.0 0.00 0.01 0.00 91 1017.4
20260506115212 51 351 0.0 2.0 0.00 0.01 0.00 91 1017.4
20260506114713 51 351 0.0 1.0 0.00 0.01 0.00 91 1017.4
20260506114212 51 355 0.0 0.0 0.00 0.01 0.00 90 1017.3
20260506113212 51 343 0.0 0.0 0.00 0.01 0.00 90 1017.4
20260506112712 51 343 0.0 0.0 0.00 0.01 0.00 90 1017.2
20260506112211 51 343 0.0 1.0 0.00 0.02 0.00 90 1017.3
20260506111711 51 343 0.0 1.0 0.00 0.02 0.00 90 1017.3
20260506111212 51 355 0.0 0.0 0.00 0.03 0.00 90 1017.3
20260506110712 51 355 0.0 0.0 0.00 0.04 0.00 90 1017.3
20260506110213 51 355 0.0 0.0 0.00 0.06 0.00 90 1017.2
20260506105212 52 355 0.0 0.0 0.00 0.08 0.00 90 1017.4
20260506104712 52 355 0.0 0.0 0.00 0.09 0.00 90 1017.4
20260506104211 52 346 0.0 0.0 0.00 0.09 0.00 90 1017.5
20260506103711 52 346 0.0 0.0 0.00 0.09 0.00 90 1017.5
20260506103212 52 346 0.0 0.0 0.00 0.09 0.00 90 1017.4
20260506102712 52 346 0.0 0.0 0.00 0.10 0.00 90 1017.4
20260506102204 52 346 0.0 0.0 0.00 0.10 0.00 89 1017.5
20260506101659 52 346 0.0 0.0 0.00 0.10 0.00 89 1017.4
20260506101153 53 346 0.0 0.0 0.00 0.11 0.00 89 1017.5
20260506100647 53 346 0.0 0.0 0.00 0.12 0.00 89 1017.4
20260506095636 53 5 0.0 0.0 0.00 0.14 0.00 89 1017.5
20260506095129 53 5 0.0 0.0 0.00 0.16 0.00 90 1017.6
20260506094117 53 5 0.0 2.0 0.00 0.19 0.00 90 1017.5
20260506093613 53 5 0.0 2.0 0.00 0.20 0.00 90 1017.7
20260506093105 53 343 0.0 0.0 0.00 0.21 0.00 90 1017.6
20260506092559 52 350 0.0 0.0 0.00 0.22 0.00 90 1017.6
20260506092053 52 340 0.0 0.0 0.00 0.23 0.00 90 1017.7
20260506090536 52 336 0.0 0.0 0.00 0.24 0.00 90 1017.7
20260506085522 51 333 0.0 0.0 0.00 0.24 0.00 89 1017.8
20260506085017 51 331 0.0 0.0 0.00 0.24 0.00 89 1017.7
20260506084512 51 0 0.0 0.0 0.00 0.24 0.00 89 1017.8
20260506084006 51 0 0.0 0.0 0.00 0.24 0.00 89 1017.9
20260506082953 51 0 0.0 1.0 0.00 0.24 0.00 88 1017.9
20260506082448 51 0 0.0 1.0 0.00 0.24 0.00 88 1018.0
20260506081942 51 0 0.0 1.0 0.00 0.24 0.00 87 1018.0
20260506081436 51 0 0.0 2.0 0.00 0.24 0.00 87 1018.0
20260506080423 52 355 0.0 2.0 0.00 0.24 0.00 87 1018.1
20260506073358 53 15 0.0 0.0 0.00 0.24 0.00 86 1018.0
20260506072855 53 15 0.0 0.0 0.00 0.24 0.00 86 1017.9
20260506072354 53 15 0.0 0.0 0.00 0.24 0.00 86 1017.9
20260506071852 53 15 0.0 0.0 0.00 0.24 0.00 86 1018.0
20260506071351 53 15 0.0 0.0 0.00 0.24 0.00 85 1018.0
20260506070853 53 15 0.0 0.0 0.00 0.24 0.00 85 1018.1
20260506070349 53 15 0.0 0.0 0.00 0.24 0.00 85 1018.0
20260506061333 56 11 0.0 2.0 0.00 0.24 0.24 79 1017.7
20260506060831 57 17 0.0 2.0 0.00 0.24 0.24 78 1017.6
20260506060331 58 20 0.0 3.0 0.00 0.24 0.24 78 1017.6
20260506051238 59 144 0.0 2.0 0.00 0.24 0.24 75 1017.2
20260506050731 60 152 0.0 4.0 0.00 0.24 0.24 74 1017.2
20260506050225 60 159 1.0 5.0 0.00 0.24 0.24 74 1017.2
20260506044708 60 158 1.0 3.0 0.00 0.24 0.24 73 1016.8
20260506043655 60 162 3.0 8.0 0.00 0.24 0.24 73 1016.5
20260506043151 60 159 4.0 8.0 0.00 0.24 0.24 73 1016.5
20260506041631 61 153 3.0 8.0 0.00 0.24 0.24 70 1016.5
20260506041125 61 152 3.0 6.0 0.00 0.24 0.24 69 1016.4